Tracking 30692 objects as of 17-Jun-2025
HD Live streaming from Space Station
objects crossing your sky now

STARLINK-5796

Track STARLINK-5796 now!
10-day predictions
STARLINK-5796 is classified as:


NORAD ID: 55916
Int'l Code: 2023-037C
Perigee: 576.7 km
Apogee: 581.6 km
Inclination: 70.0 °
Period: 96.1 minutes
Semi major axis: 6950 km
RCS: Unknown
Launch date: March 17, 2023
Source: United States (US)
Launch site: AIR FORCE WESTERN TEST RANGE (AFWTR)
Your satellite tracking list
Your tracking list is empty




NASA's NSSDC Master Catalog

Two Line Element Set (TLE):
1 55916U 23037C   25167.24792288  .00001075  00000-0  97869-4 0  9990
2 55916  70.0007 256.3737 0003552 275.8836  84.1918 14.98339759123576
Source of the keplerian elements: AFSPC